Regional Weather Roundup
Issued by NWS Bismarck, ND

Home | Current Version | Previous Version | Text Only | Print | Product List | Glossary On
Versions: 1 2 3 4 5 6 7 8 9 10 11 12 13 14 15 16 17 18 19 20 21 22 23 24 25 26 27 28 29 30 31 32 33 34 35 36 37 38 39 40 41 42 43 44 45 46 47 48 49 50
000
ASUS43 KBIS 011802
RWRBIS

NWR BROADCAST TEXT
NATIONAL WEATHER SERVICE BISMARCK ND
1200 PM CST WED MAR 01 2017

NOTE: "FAIR" INDICATES FEW OR NO CLOUDS BELOW 12,000 FEET WITH NO
SIGNIFICANT WEATHER AND/OR OBSTRUCTIONS TO VISIBILITY.


CITY           SKY/WX    TMP DP  RH WIND       PRES   REMARKS
WILLISTON      FAIR      16   9  74 CALM      30.10S
MINOT          FAIR      18  11  74 NW10      30.09S WCI   6
MINOT AFB      FAIR      15  10  77 NW12      30.09S WCI   2
BISMARCK       FAIR      23  14  68 NW14      30.12R WCI  11
DICKINSON      FAIR      23  13  65 W12       30.04S WCI  12
GARRISON         N/A     14   9  80 NW9       30.10S WCI   2
HETTINGER ARPT CLOUDY    26  11  52 W10       30.08S WCI  16
JAMESTOWN      FAIR      20  14  77 NW17      30.06R WCI   5
CARRINGTON     FLURRIES  16  12  86 NW17      30.09S WCI   0
HAZEN          CLOUDY   N/A N/A N/A NW3       30.13S
MANDAN         FAIR      23  16  74 NW12      30.10S WCI  12
STANLEY        FAIR      16  14  93 CALM      30.09S
$$

CITY           SKY/WX    TMP DP  RH WIND       PRES   REMARKS
GRAND FORKS    PTSUNNY   20   9  62 N15       30.07R WCI   6
GRAND FORKS AF PTSUNNY   20  12  69 N14       30.07S WCI   7
DEVILS LAKE    FAIR      13   8  81 W12       30.08R WCI  -1
FARGO          CLOUDY    22  16  78 NW15      30.05R WCI   9
CAVALIER         N/A     18  10  73 N15       30.08R WCI   3
GRAFTON        FAIR      18  12  79 NW14      30.09S WCI   4
GWINNER        MOCLDY    27  19  74 NW18      30.06R WCI  13
ROLLA          FLURRIES  10   9  92 N14       30.05R WCI  -5
$$

CITY           SKY/WX    TMP DP  RH WIND       PRES   REMARKS
ABERDEEN       PTSUNNY   27  19  72 NW18      30.08R WCI  14
MOBRIDGE       CLOUDY    28  18  66 NW14G24   30.09R WCI  17
BUFFALO          N/A     28  18  66 W14       30.01S WCI  17
RAPID CITY     FAIR      36  10  34 NW13      30.10S
GLASGOW        CLOUDY    26  19  74 SE10      29.98F WCI  16
SIDNEY         LGT SNOW  29  17  61 CALM      30.09F
WOLF POINT     LGT SNOW  22  17  81 E8        30.05F WCI  12
GLENDIVE       FLURRIES  28  20  71 SW13      30.05F WCI  17
MILES CITY     CLOUDY    31  16  54 SW10      30.05S
BAKER          CLOUDY    27  19  72 W14       30.05F WCI  16
$$

CITY           SKY/WX    TMP DP  RH WIND       PRES   REMARKS
BILLINGS       PTSUNNY   40  12  32 W31G46    30.02F
GREAT FALLS    FAIR      35  20  54 SW26G39   29.97R
$$




USA.gov is the U.S. government's official web portal to all federal, state and local government web resources and services.